Hourly Weather Adampol

Today, 5 March, Friday

Time Temperature Precipitation Wind Pressure Humidity
00:00 -6°C° 0 mm 3 mps 740 mmHg 85%
01:00 -5°C° 0 mm 2 mps 740 mmHg 86%
02:00 -8°C° 0 mm 3 mps 740 mmHg 87%
03:00 -7°C° 0 mm 2 mps 741 mmHg 87%
04:00 -7°C° 0 mm 2 mps 741 mmHg 87%
05:00 -8°C° 0 mm 2 mps 741 mmHg 87%
06:00 -7°C° 0 mm 2 mps 741 mmHg 86%
07:00 -7°C° 0 mm 2 mps 742 mmHg 84%
08:00 -6°C° 0 mm 2 mps 742 mmHg 82%
09:00 -6°C° 0 mm 3 mps 742 mmHg 80%
10:00 -5°C° 0 mm 3 mps 743 mmHg 77%
11:00 -3°C° 0 mm 4 mps 743 mmHg 74%
12:00 -3°C° 0 mm 4 mps 743 mmHg 69%
13:00 -3°C° 0 mm 4 mps 743 mmHg 64%
14:00 -2°C° 0 mm 5 mps 744 mmHg 60%
15:00 -3°C° 0 mm 4 mps 744 mmHg 60%
16:00 -2°C° 0 mm 3 mps 744 mmHg 60%
17:00 -3°C° 0 mm 2 mps 744 mmHg 60%
18:00 -4°C° 0 mm 2 mps 745 mmHg 63%
19:00 -5°C° 0 mm 2 mps 745 mmHg 65%
20:00 -6°C° 0 mm 2 mps 746 mmHg 68%
21:00 -6°C° 0 mm 2 mps 746 mmHg 68%
22:00 -6°C° 0 mm 2 mps 746 mmHg 67%
23:00 -6°C° 0 mm 2 mps 747 mmHg 67%

Tomorrow, 6 March, Saturday

Time Temperature Precipitation Wind Pressure Humidity
00:00 -7°C° 0 mm 3 mps 747 mmHg 68%
01:00 -7°C° 0 mm 3 mps 747 mmHg 68%
02:00 -7°C° 0 mm 3 mps 747 mmHg 69%
03:00 -7°C° 0 mm 3 mps 747 mmHg 75%
04:00 -7°C° 0 mm 3 mps 747 mmHg 81%
05:00 -7°C° 0 mm 3 mps 747 mmHg 87%
06:00 -7°C° 0 mm 3 mps 747 mmHg 89%
07:00 -7°C° 0 mm 3 mps 748 mmHg 91%
08:00 -7°C° 0 mm 3 mps 748 mmHg 92%
09:00 -6°C° 0 mm 3 mps 749 mmHg 85%
10:00 -5°C° 0 mm 3 mps 749 mmHg 77%
11:00 -4°C° 0 mm 3 mps 749 mmHg 69%
12:00 -4°C° 0 mm 3 mps 749 mmHg 64%
13:00 -3°C° 0 mm 4 mps 749 mmHg 59%
14:00 -3°C° 0 mm 4 mps 749 mmHg 55%
15:00 -3°C° 0 mm 4 mps 748 mmHg 56%
16:00 -4°C° 0 mm 3 mps 748 mmHg 58%
17:00 -4°C° 0 mm 3 mps 748 mmHg 59%
18:00 -4°C° 0 mm 3 mps 747 mmHg 63%
19:00 -5°C° 0 mm 4 mps 747 mmHg 67%
20:00 -7°C° 0 mm 4 mps 747 mmHg 71%
21:00 -5°C° 0 mm 4 mps 746 mmHg 71%
22:00 -6°C° 0 mm 5 mps 745 mmHg 72%
23:00 -6°C° 0 mm 6 mps 744 mmHg 73%

Day after tomorrow, 7 March, Sunday

Time Temperature Precipitation Wind Pressure Humidity
00:00 -5°C° 0 mm 6 mps 743 mmHg 73%
01:00 -6°C° 0 mm 7 mps 742 mmHg 74%
02:00 -6°C° 0 mm 8 mps 741 mmHg 74%
03:00 -5°C° 0 mm 8 mps 740 mmHg 79%
04:00 -5°C° 0 mm 9 mps 739 mmHg 84%
05:00 -5°C° 0 mm 9 mps 739 mmHg 89%
06:00 -4°C° 0.1 mm 9 mps 738 mmHg 90%
07:00 -4°C° 0.1 mm 9 mps 738 mmHg 91%
08:00 -4°C° 0.1 mm 9 mps 738 mmHg 92%
09:00 -4°C° 0.5 mm 8 mps 739 mmHg 88%
10:00 -3°C° 0.5 mm 7 mps 739 mmHg 84%
11:00 -2°C° 0.5 mm 5 mps 739 mmHg 80%
12:00 -3°C° 0 mm 6 mps 739 mmHg 78%
13:00 -3°C° 0 mm 6 mps 739 mmHg 75%
14:00 -2°C° 0 mm 6 mps 739 mmHg 73%
15:00 -3°C° 0.1 mm 6 mps 738 mmHg 77%
16:00 -3°C° 0.1 mm 6 mps 738 mmHg 80%
17:00 -3°C° 0.1 mm 6 mps 737 mmHg 84%
18:00 -2°C° 0.2 mm 5 mps 737 mmHg 84%
19:00 -4°C° 0.2 mm 5 mps 737 mmHg 85%
20:00 -3°C° 0.2 mm 4 mps 737 mmHg 85%
21:00 -3°C° 0.1 mm 4 mps 737 mmHg 81%
22:00 -4°C° 0.1 mm 4 mps 737 mmHg 77%
23:00 -5°C° 0.1 mm 5 mps 737 mmHg 72%

8 March, Monday

Time Temperature Precipitation Wind Pressure Humidity
00:00 -5°C° 0 mm 4 mps 737 mmHg 74%
01:00 -5°C° 0 mm 4 mps 737 mmHg 75%
02:00 -7°C° 0 mm 4 mps 738 mmHg 76%
03:00 -7°C° 0 mm 4 mps 738 mmHg 79%
04:00 -8°C° 0 mm 4 mps 738 mmHg 81%
05:00 -7°C° 0 mm 3 mps 738 mmHg 83%
06:00 -7°C° 0 mm 3 mps 739 mmHg 84%
07:00 -7°C° 0 mm 3 mps 739 mmHg 84%
08:00 -7°C° 0 mm 3 mps 739 mmHg 84%
09:00 -6°C° 0 mm 3 mps 740 mmHg 81%
10:00 -6°C° 0 mm 3 mps 740 mmHg 77%
11:00 -5°C° 0 mm 3 mps 740 mmHg 74%
12:00 -5°C° 0.1 mm 3 mps 740 mmHg 72%
13:00 -4°C° 0.1 mm 3 mps 740 mmHg 71%
14:00 -4°C° 0.1 mm 3 mps 740 mmHg 69%
15:00 -4°C° 0.1 mm 4 mps 740 mmHg 70%
16:00 -4°C° 0.1 mm 4 mps 741 mmHg 71%
17:00 -4°C° 0.1 mm 4 mps 741 mmHg 72%
18:00 -5°C° 0.1 mm 4 mps 741 mmHg 73%
19:00 -7°C° 0.1 mm 4 mps 742 mmHg 74%
20:00 -8°C° 0.1 mm 4 mps 742 mmHg 75%
21:00 -8°C° 0 mm 4 mps 743 mmHg 74%
22:00 -9°C° 0 mm 4 mps 744 mmHg 74%
23:00 -9°C° 0 mm 4 mps 744 mmHg 73%

9 March, Tuesday

Time Temperature Precipitation Wind Pressure Humidity
00:00 -9°C° 0 mm 4 mps 745 mmHg 73%
01:00 -9°C° 0 mm 3 mps 745 mmHg 74%
02:00 -9°C° 0 mm 3 mps 746 mmHg 74%
03:00 -10°C° 0 mm 3 mps 746 mmHg 75%
04:00 -10°C° 0 mm 3 mps 747 mmHg 76%
05:00 -10°C° 0 mm 3 mps 747 mmHg 77%
06:00 -10°C° 0 mm 3 mps 747 mmHg 76%
07:00 -10°C° 0 mm 3 mps 748 mmHg 75%
08:00 -9°C° 0 mm 2 mps 748 mmHg 74%
09:00 -8°C° 0 mm 2 mps 748 mmHg 67%
10:00 -7°C° 0 mm 2 mps 748 mmHg 60%
11:00 -6°C° 0 mm 2 mps 748 mmHg 53%
12:00 -5°C° 0 mm 2 mps 748 mmHg 51%
13:00 -5°C° 0 mm 3 mps 748 mmHg 50%
14:00 -4°C° 0 mm 3 mps 749 mmHg 49%
15:00 -5°C° 0 mm 3 mps 748 mmHg 52%
16:00 -5°C° 0 mm 4 mps 748 mmHg 56%
17:00 -5°C° 0 mm 4 mps 748 mmHg 59%
18:00 -6°C° 0 mm 3 mps 748 mmHg 64%
19:00 -6°C° 0 mm 3 mps 748 mmHg 68%
20:00 -7°C° 0 mm 3 mps 748 mmHg 72%
21:00 -7°C° 0 mm 3 mps 748 mmHg 72%
22:00 -8°C° 0 mm 3 mps 748 mmHg 72%
23:00 -8°C° 0 mm 3 mps 748 mmHg 72%

10 March, Wednesday

Time Temperature Precipitation Wind Pressure Humidity
00:00 -8°C° 0 mm 3 mps 748 mmHg 71%
01:00 -8°C° 0 mm 3 mps 748 mmHg 71%
02:00 -8°C° 0 mm 3 mps 747 mmHg 70%
03:00 -8°C° 0 mm 3 mps 747 mmHg 70%
04:00 -8°C° 0 mm 3 mps 747 mmHg 71%
05:00 -9°C° 0 mm 3 mps 746 mmHg 71%
06:00 -8°C° 0 mm 3 mps 746 mmHg 71%
07:00 -8°C° 0 mm 3 mps 746 mmHg 71%
08:00 -8°C° 0 mm 3 mps 746 mmHg 71%
09:00 -8°C° 0 mm 4 mps 746 mmHg 67%
10:00 -5°C° 0 mm 4 mps 745 mmHg 63%
11:00 -4°C° 0 mm 4 mps 745 mmHg 59%
12:00 -4°C° 0 mm 5 mps 745 mmHg 59%
13:00 -4°C° 0 mm 5 mps 744 mmHg 58%
14:00 -2°C° 0 mm 5 mps 744 mmHg 57%
15:00 -2°C° 0 mm 5 mps 744 mmHg 59%
16:00 -3°C° 0 mm 4 mps 743 mmHg 61%
17:00 -3°C° 0 mm 4 mps 743 mmHg 63%
18:00 -3°C° 0 mm 4 mps 742 mmHg 64%
19:00 -4°C° 0 mm 4 mps 742 mmHg 66%
20:00 -5°C° 0 mm 4 mps 742 mmHg 67%
21:00 -5°C° 0 mm 4 mps 741 mmHg 67%
22:00 -5°C° 0 mm 4 mps 741 mmHg 67%
23:00 -5°C° 0 mm 4 mps 741 mmHg 67%
Show more